Terminal Aerodrome Forecast
Issued by NWS

Home | Current Version | Previous Version | Text Only | Print | Product List | Glossary On
Versions: 1 2 3 4 5 6 7 8 9 10 11 12 13 14 15 16 17 18 19 20 21 22 23 24 25 26 27 28 29 30 31 32 33 34 35 36 37 38 39 40 41 42 43 44 45 46 47 48
000
FTUS42 KMFL 230240 AAA
TAFTMB
TAF AMD
KTMB 230240Z 2303/2324 00000KT P6SM FEW015
     FM230600 16004KT P6SM SCT015 BKN050
      TEMPO 2308/2312 3SM BR BKN010
     FM231400 15015KT P6SM BKN040=

USA.gov is the U.S. government's official web portal to all federal, state and local government web resources and services.